Date,TemperatureHighF,TemperatureAvgF,TemperatureLowF,DewpointHighF,DewpointAvgF,DewpointLowF,HumidityHigh,HumidityAvg,HumidityLow,PressureMaxIn,PressureMinIn,WindSpeedMaxMPH,WindSpeedAvgMPH,GustSpeedMaxMPH,PrecipitationSumIn
2013-9-1,76.0,1.1,76.0,-99.9,-99.9,-99.9,0,0,100,29.85,29.77,9,-10,13,0.00
2013-9-2,76.0,2.5,76.0,-99.9,-99.9,-99.9,0,0,100,29.79,29.70,5,-31,9,0.00
2013-9-3,79.0,4.0,72.0,-99.9,-99.9,-99.9,0,0,100,29.87,29.70,17,-47,21,0.00
2013-9-4,79.0,4.5,66.0,-99.9,-99.9,-99.9,0,0,100,29.99,29.87,14,-44,18,0.00
2013-9-5,74.0,2.8,67.0,-99.9,-99.9,-99.9,0,0,100,30.13,29.92,20,-32,23,0.00
2013-9-6,69.0,2.7,61.0,-99.9,-99.9,-99.9,0,0,100,30.24,30.12,15,-35,20,0.00
2013-9-7,77.0,1.1,77.0,-99.9,-99.9,-99.9,0,0,100,30.12,29.90,8,4,14,0.00
2013-9-8,78.0,5.7,67.0,-99.9,-99.9,-99.9,0,0,100,30.05,29.81,21,-60,26,0.00
2013-9-9,68.0,4.3,63.0,-99.9,-99.9,-99.9,0,0,100,30.23,30.05,15,-44,19,0.00
2013-9-10,73.0,10.5,69.0,-99.9,-99.9,-99.9,0,0,100,30.15,30.12,7,-54,14,0.00
2013-9-11,85.0,2.8,77.0,-99.9,-99.9,-99.9,0,0,100,30.13,29.99,10,-12,18,0.00
2013-9-12,79.0,2.8,70.0,-99.9,-99.9,-99.9,0,0,100,30.02,29.71,11,-33,21,0.00
2013-9-13,68.0,0.9,68.0,-99.9,-99.9,-99.9,0,0,100,29.87,29.66,22,-3,28,0.00
2013-9-14,63.0,1.5,57.0,-99.9,-99.9,-99.9,0,0,100,30.14,29.87,17,-15,22,0.00
2013-9-15,68.0,1.3,68.0,-99.9,-99.9,-99.9,0,0,100,30.23,30.10,7,4,11,0.00
2013-9-16,65.0,4.1,60.0,-99.9,-99.9,-99.9,0,0,100,30.24,30.05,20,-59,25,0.00
2013-9-17,58.0,2.2,56.0,-99.9,-99.9,-99.9,0,0,100,30.45,30.28,21,-30,27,0.00
2013-9-18,54.0,1.7,54.0,-99.9,-99.9,-99.9,0,0,100,30.37,30.21,4,-29,6,0.00
2013-9-19,65.0,2.3,53.0,-99.9,-99.9,-99.9,0,0,100,30.21,30.09,8,-34,13,0.00
2013-9-20,73.0,2.5,60.0,-99.9,-99.9,-99.9,0,0,100,30.10,30.01,9,-34,14,0.00
2013-9-21,71.0,1.8,60.0,-99.9,-99.9,-99.9,0,0,100,30.03,29.68,16,-22,22,0.00
2013-9-22,64.0,1.7,63.0,-99.9,-99.9,-99.9,0,0,100,29.92,29.67,21,-16,26,0.00
2013-9-23,64.0,2.8,55.0,-99.9,-99.9,-99.9,0,0,100,30.06,29.92,18,-23,22,0.00
2013-9-24,73.0,2.5,52.0,-99.9,-99.9,-99.9,0,0,100,30.07,29.89,14,-33,18,0.00
2013-9-25,62.0,1.6,61.0,-99.9,-99.9,-99.9,0,0,100,29.98,29.88,12,-21,16,0.00
2013-9-26,59.0,1.5,57.0,-99.9,-99.9,-99.9,0,0,100,30.11,29.95,12,-21,15,0.00
2013-9-27,65.0,4.2,57.0,-99.9,-99.9,-99.9,0,0,100,30.28,30.11,11,-64,13,0.00
2013-9-28,70.0,2.4,59.0,-99.9,-99.9,-99.9,0,0,100,30.34,30.25,11,-33,14,0.00
2013-9-29,65.0,1.8,59.0,-99.9,-99.9,-99.9,0,0,100,30.25,30.10,9,-25,13,0.00
2013-9-30,64.0,1.6,59.0,-99.9,-99.9,-99.9,0,0,100,30.10,29.98,8,-9,11,0.00